Regional Weather Roundup
Issued by NWS Sterling, VA

Home | Current Version | Previous Version | Text Only | Print | Product List | Glossary Off
Versions: 1 2 3 4 5 6 7 8 9 10 11 12 13 14 15 16 17 18 19 20 21 22 23 24 25 26 27 28 29 30 31 32 33 34 35 36 37 38 39 40 41 42 43 44 45 46 47 48 49 50

000
ASUS41 KLWX 222211
RWRLWX

REGIONAL WEATHER ROUNDUP
NATIONAL WEATHER SERVICE BALTIMORE MD/WASHINGTON DC
600 PM EDT TUE AUG 22 2017

Note: "FAIR" indicates few or no clouds below 12,000 feet
with no significant weather and/or obstructions to visibility.
 TC=TEMPERATURE CELSIUS

 * =Non NWS site. Station does not report precipitation (e.g. rain,
    snow, etc.), thunder, or fog.

DCZ001-MDZ009-015-VAZ040>042-051-053>054-222300-
WASHINGTON METRO

CITY           SKY/WX    TMP DP  RH WIND       PRES   REMARKS
WASHINGTON NAT MOSUNNY   91  71  51 S13G25    29.84F HX  97
DULLES         MOSUNNY   89  72  56 S14G23    29.84F HX  96
ANDREWS AFB    SUNNY     89  70  53 S16G22    29.85F HX  94
FT BELVOIR     SUNNY     90  70  52 S8        29.85S HX  95
QUANTICO       SUNNY     91  73  55 SW22G31   29.86S HX  99
COLLEGE PARK*  SUNNY     91  68  46 S6        29.83F HX  95
LEESBURG*      SUNNY     91  73  55 S10G17    29.85S HX 100
MANASSAS*      MOSUNNY   89  72  56 S10       29.85F HX  96
GAITHERSBURG*  SUNNY     90  72  55 S9G17     29.86F HX  97

$$

MDZ006>007-011-014-222300-
BALTIMORE METRO

CITY           SKY/WX    TMP DP  RH WIND       PRES   REMARKS
BWI AIRPORT    MOSUNNY   90  69  50 S12G22    29.82F HX  94
MD SCIENCE CTR   N/A     92  68  45 MISG      29.80F HX  96
MARTIN STATE   MOSUNNY   90  79  70 SE14      29.84F HX 105
ANNAPOLIS      SUNNY     89  79  72 S16G25    29.84F HX 104
FORT MEADE*    SUNNY     86  68  54 SW10G16   29.86F

$$

MDZ012-015-019>023-222300-
MARYLAND EASTERN SHORE

CITY           SKY/WX    TMP DP  RH WIND       PRES   REMARKS
OCEAN CITY     SUNNY     81  78  91 S13G20    29.92F
SALISBURY      SUNNY     87  72  60 SW14G23   29.90F HX  93
BAY BRIDGE AP* SUNNY     90  75  62 S12G21    29.85F HX 100
CAMBRIDGE*     SUNNY     86  77  74 S12G22    29.88F HX  97
EASTON*        SUNNY     90  73  58 SW15G24   29.90F HX  98

$$

MDZ017>025-222300-
SOUTHERN MARYLAND

CITY           SKY/WX    TMP DP  RH WIND       PRES   REMARKS
PATUXENT RIVER SUNNY     88  74  63 S10       29.87F HX  96
ST INIGOES     SUNNY     88  75  65 S12       29.87F HX  97
LEONARDTOWN*   SUNNY     88  70  55 S7        29.90S HX  92

$$

MDZ003>005-222300-
NORTH CENTRAL MARYLAND

CITY           SKY/WX    TMP DP  RH WIND       PRES   REMARKS
FREDERICK*     SUNNY     91  70  49 S10G16    29.85F HX  97
HAGERSTOWN APT MOSUNNY   90  72  55 S14       29.82S HX  97
WESTMINSTER*   NOT AVBL

$$

MDZ501>502-222300-
WESTERN MARYLAND

CITY           SKY/WX    TMP DP  RH WIND       PRES   REMARKS
OAKLAND*       MOSUNNY   73  63  68 SW12G22   29.96S
CUMBERLAND*    MOSUNNY   90  61  37 SW10G18   29.87S

$$

VAZ025>031-222300-
SHENANDOAH VALLEY

CITY           SKY/WX    TMP DP  RH WIND       PRES   REMARKS
WINCHESTER*    SUNNY     88  66  48 SW10      29.84S HX  90
FRONT ROYAL*   SUNNY     90  64  43 SW7G17    29.84F HX  91
LURAY*         SUNNY     90  66  45 S9G17     29.87S HX  92
NEW MARKET*    SUNNY     91  63  38 SW10G20   29.86S HX  92
STAUNTON*      MOSUNNY   89  67  47 SW13      29.93S HX  92
WAYNESBORO*    MOSUNNY   89  69  52 S5G18     29.94S HX  93

$$

WVZ021-048>050-054>055-222300-
EASTERN WEST VIRGINIA PANHANDLE

CITY           SKY/WX    TMP DP  RH WIND       PRES   REMARKS
MARTINSBURG    SUNNY     89  72  56 S9        29.81F HX  96
PETERSBURG*    SUNNY     91  67  45 SW8       29.87R HX  94

$$

VAZ036>039-050-222300-
CENTRAL FOOTHILLS

CITY           SKY/WX    TMP DP  RH WIND       PRES   REMARKS
CHARLOTTESVILL MOSUNNY   93  65  39 SW9       29.88S HX  95
CULPEPER*      MOSUNNY   92  71  48 S9        29.86S HX  99
ORANGE*        PTSUNNY   91  68  46 S9G16     29.87S HX  95
GORDONSVILLE*  PTSUNNY   91  70  51 S10       29.87R HX  96
WARRENTON*     PTSUNNY   91  68  45 S8        29.85S HX  95

$$

VAZ055>057-222300-
NORTH AND CENTRAL PIEDMONT

CITY           SKY/WX    TMP DP  RH WIND       PRES   REMARKS
FREDERICKSBRG* SUNNY     91  72  53 S14       29.86S HX  99
STAFFORD*      SUNNY     90  71  54 S9        29.90S HX  96

$$

NCZ024-NYZ072-PAZ021-071-VAZ022-071-222300-
OTHER REGIONAL OBSERVATIONS

CITY           SKY/WX    TMP DP  RH WIND       PRES   REMARKS
NEW YORK CITY  MOSUNNY   87  71  58 SW12G23   29.82F HX  93
PHILADELPHIA   MOSUNNY   91  70  49 SW21G28   29.82F HX  96
PITTSBURGH     CLOUDY    74  71  91 SW8       29.86R
ROANOKE        PTSUNNY   91  68  46 VRB7      29.96S HX  95
RICHMOND       MOSUNNY   89  72  56 SW13      29.91S HX  96
RALEIGH        MOSUNNY   90  70  51 S10       29.94F HX  95

$$

ANZ530>537-222300-
MARINE OBSERVATIONS

STATION/POSITION TIME  TEMP    WIND        PRES
                       AIR SEA DIR/SP/G
                 (UTC) (F)     (DEG/KT/KT) (MB)
THOMAS PT LIGHT  2200   84 82  180/ 21/ 23   N/A
BALT KEY BRIDGE  2142   90     190/ 13/ 16 1009.9F
COVE POINT       2142   87     200/ 15/ 20 1012.3F
LEWISETTA        2142   88 86  220/ 14/ 17 1011.8F
SOLOMONS ISLAND  2142   88 83  190/ 14/ 16   N/A
PINEY POINT      2148          210/ 14/ 16   N/A

$$




USA.gov is the U.S. government's official web portal to all federal, state and local government web resources and services.